Location: Dulzura
(32.6442°N, 116.7814°W)
Time: 14:20:00
(UTC+00:00)

SKYMED 2 - Visible Passes

Search period start: 01 July 2022 00:00
Search period end: 11 July 2022 00:00
Orbit: 621 x 623 km, 97.9° (Epoch: 01 July)

Date Brightness Start Highest point End Pass type
(mag) Time Alt. Az. Time Alt. Az. Time Alt. Az.
02 Jul 7.2 11:55:05 10° E 11:56:23 11° ENE 11:57:41 10° NE visible
03 Jul 6.7 12:11:16 10° ESE 12:14:12 18° ENE 12:17:09 10° NNE visible
08 Jul 6.8 12:05:39 10° ESE 12:08:11 15° ENE 12:10:44 10° NNE visible
